Location: Auttagershofen
(48.1940°N, 10.0237°E)
Time: 07:07:00
(UTC+00:00)

Cosmos 841 Rocket - Pass Details

Date: 18 January 2026
Orbit: 743 x 766 km, 74.0° (Epoch: 17 February)

Event Time Altitude Azimuth Distance (km) Brightness Sun altitude
Exits shadow 06:14:07 -1° 337° (NNW) 3,273 6.3 -8.2°
Rises 06:14:16 0° 337° (NNW) 3,213 6.3 -8.2°
Reaches altitude 10° 06:16:39 10° 339° (NNW) 2,281 5.6 -7.8°
Maximum altitude 06:21:50 82° 67° (ENE) 761 3.6 -7.0°
Drops below altitude 10° 06:26:57 10° 155° (SSE) 2,254 6.7 -6.2°
Sets 06:29:17 0° 157° (SSE) 3,172 7.5 -5.9°
